Flugplatz Hünsborn (EDKH)

Hier findest Du alle Informationen zum Flugplatz Hünsborn (EDKH).

Informationen für Piloten zum Flugplatz Hünsborn

Hier findest Du alle relevanten Informationen, die Du als Pilot benötigst, um Hünsborn anzufliegen.

Flugplatz: Hünsborn ICAO-Code: EDKH
Frequenz Turm: 130,125 Mhz GAFOR Gebiet: 36
Frequenz Ground: 130,125 Mhz Mogas: nein
Platzrunde: N 2300 ft Landegebühr: -
Platzhöhe: - Sunrise: 03:45 Uhr UTC
Pisten: 09/27 - 700 m x 30 m, GRAS Sunset: 19:24 Uhr UTC

Mitglieder, die in Hünsborn fliegen

Flugwetter am Flugplatz Hünsborn

Die METAR Information stammen aus EDGS (27.87 km entfernt).

METAR Code:
2021/07/26 13:20
EDGS 261320Z 21010KT 160V250 9999 SCT030TCU 21/13 Q1013

Flugschulen am Flugplatz Hünsborn

Am Flugplatz Hünsborn gibt es leider keine Flugschule.

Benachbarte Flugplätze und Flugschulen

Es gibt 20 weitere Flugplätze in einem Umkreis von 50 km um den Flugplatz Hünsborn.

Jetzt anmelden

Passwort vergessen

Umfrage Archiv

Seid Ihr aufgrund von Corona im Jahr 2020 mehr oder weniger geflogen als im Jahr zuvor?

weniger
56.6 %
gleich viel
26.5 %
mehr
16.8 %
Stimmen: 279 | Diskussion
Anzeige: Roland Aircraft
Statistik Alle Mitglieder

Aktuell sind 53 Besucher online, davon 1 Mitglied und 52 Gäste.


Mitglieder online:
lois1973 

Anzeige: VFR Sprechfunk Simulator Anzeige: Pocket FMS